Skip Page Navigation
NASA JPL Caltech
NASA Logo - Jet Propulsion Laboratory + View the NASA Portal
+ Center for Near-Earth Object Studies
JPL Home Earth Solar System Stars & Galaxies Technology
JPL Solar System Dynamics
BODIES ORBITS EPHEMERIDES TOOLS PHYSICAL DATA DISCOVERY FAQ SITE MAP
IMPORTANT: The SSD Announcement email list is now available. Major changes are coming in the near future, including possible hostname and/or URL changes. To be notified of such changes, subscribe to this email list.

Please visit this page for more details.


JPL Small-Body Database Browser
Search: [ help ]  
277437 (2005 UG433)
Classification: Main-belt Asteroid          SPK-ID: 2277437
Ephemeris | Orbit Diagram | Orbital Elements | Mission Design | Physical Parameters | Discovery Circumstances | Close-Approach Data ]

[ show orbit diagram ]
Orbital Elements at Epoch 2458600.5 (2019-Apr-27.0) TDB
Reference: JPL 11 (heliocentric ecliptic J2000)
 Element Value Uncertainty (1-sigma)   Units 
e .1276192490065897 5.3397e-08  
a 3.148472672755534 3.0539e-08 au
q 2.746666954740703 1.597e-07 au
i 2.794892919704278 6.6344e-06 deg
node 69.13863060506669 0.00011691 deg
peri 80.05663286950059 0.00012038 deg
M 70.49949955997808 2.8306e-05 deg
tp 2458200.894136082958
(2018-Mar-23.39413608)
0.00015915 TDB
period 2040.555066461807
5.59
2.9689e-05
8.128e-08
d
yr
n .1764225851666023 2.5669e-09 deg/d
Q 3.550278390770366 3.4437e-08 au
  Orbit Determination Parameters
   # obs. used (total)      266  
   data-arc span      5431 days (14.87 yr)  
   first obs. used      2004-09-11  
   last obs. used      2019-07-26  
   planetary ephem.      DE431  
   SB-pert. ephem.      SB431-N16  
   condition code      0  
   norm. resid. RMS      .60324  
   source      ORB  
   producer      Otto Matic  
   solution date      2019-Sep-24 04:46:57  

Additional Information
 Earth MOID = 1.76023 au 
 Jupiter MOID = 1.45591 au 
 T_jup = 3.194 
[ show covariance matrix ]

Ephemeris | Orbit Diagram | Orbital Elements | Mission Design | Physical Parameters | Discovery Circumstances | Close-Approach Data ]

Physical Parameter Table
Parameter Symbol Value Units Sigma Reference Notes
absolute magnitude H 15.8   n/a MPO437263  

277437 (2005 UG433)          Discovered 2005-Oct-28 by Spacewatch at Kitt Peak
Reference: 20110517/Numbers.arcLast Updated: 2011-05-20

[ show close-approach data ]
Alternate Designations
 2005 UG433 = 2004 RO274 
Ephemeris | Orbit Diagram | Orbital Elements | Mission Design | Physical Parameters | Discovery Circumstances | Close-Approach Data ]
ABOUT SSD CREDITS/AWARDS PRIVACY/COPYRIGHT GLOSSARY LINKS
FirstGov 2019-Dec-12 01:35 UT
(server date/time)  
NASA Home Page
Site Manager:   Ryan S. Park
Webmaster  Alan B. Chamberlin